Palmer, AK

11:52 PM AKST on January 20, 2018 (GMT -0900)
Palmer Municipal

Weather History for PAAQ - February, 2013

Change the Weather History Date:

Thursday, February 14, 2013

  Actual Average Record
Temperature  
Mean Temperature 34 °F -  
Max Temperature 39 °F 26 °F 46 °F (1970)
Min Temperature 28 °F 9 °F -18 °F (1967)
Degree Days  
Heating Degree Days 32    
Moisture  
Dew Point 22 °F    
Average Humidity 66    
Maximum Humidity 96    
Minimum Humidity 44    
Precipitation  
Precipitation 0.11 in - - ()
Sea Level Pressure  
Sea Level Pressure 29.40 in    
Wind  
Wind Speed 9 mph (North)    
Max Wind Speed 26 mph    
Max Gust Speed 37 mph    
Visibility 8 miles    
Events Fog , Snow    
Averages and records for this station are not official NWS values.
T = Trace of Precipitation, MM = Missing Value Source: NWS Daily Summary

Daily Weather History Graph

Daily Weather History Graph

Search for Another Location

Airport or City:

Trip Planner

Search our weather history database for the weather conditions in past years. The results will help you decide how hot, cold, wet, or windy it might be!

Date:

Astronomy

Feb. 14, 2013 Rise Set
Actual Time 8:41 AM AKST 5:40 PM AKST
Civil Twilight 7:55 AM AKST 6:26 PM AKST
Nautical Twilight 7:04 AM AKST 7:18 PM AKST
Astronomical Twilight 6:13 AM AKST 8:08 PM AKST
Moon 9:11 AM AKST (2/14) No Moon Set
Length of Visible Light 10h 31m
Length of Day
8h 58m
Waxing Crescent, 23% of the Moon is Illuminated
Feb 14
Waxing Crescent
Feb 17
First Quarter
Feb 25
Full
Mar 4
Last Quarter
Mar 11
New

Hourly Weather History & Observations

Time (AKST) Temp. Windchill Dew Point Humidity Pressure Visibility Wind Dir Wind Speed Gust Speed Precip Events Conditions
12:53 AM 39.9 °F 32.9 °F 19.9 °F 45% 29.66 in 10.0 mi ENE 11.5 mph 24.2 mph N/A   Partly Cloudy
1:53 AM 39.0 °F 34.0 °F 19.9 °F 46% 29.65 in 10.0 mi Variable 6.9 mph 24.2 mph N/A   Clear
2:53 AM 39.0 °F 30.3 °F 19.9 °F 46% 29.64 in 10.0 mi ESE 16.1 mph 23.0 mph N/A   Clear
3:53 AM 32.0 °F 24.8 °F 15.1 °F 50% 29.62 in 10.0 mi NNW 8.1 mph 21.9 mph N/A   Scattered Clouds
4:53 AM 34.0 °F 27.2 °F 14.0 °F 44% 29.57 in 10.0 mi WNW 8.1 mph - N/A   Overcast
5:53 AM 36.0 °F 28.5 °F 16.0 °F 44% 29.53 in 10.0 mi North 10.4 mph - N/A   Overcast
6:53 AM 35.1 °F 27.4 °F 16.0 °F 46% 29.49 in 10.0 mi WNW 10.4 mph - N/A   Overcast
7:53 AM 32.0 °F 23.6 °F 16.0 °F 52% 29.47 in 10.0 mi NNW 10.4 mph 17.3 mph N/A   Overcast
8:53 AM 32.0 °F 25.6 °F 16.0 °F 52% 29.42 in 10.0 mi North 6.9 mph - N/A   Overcast
9:53 AM 32.0 °F 26.4 °F 18.0 °F 56% 29.36 in 10.0 mi North 5.8 mph - N/A   Overcast
10:53 AM 35.1 °F 25.9 °F 19.0 °F 52% 29.30 in 10.0 mi NNE 13.8 mph - N/A   Overcast
11:53 AM 35.1 °F 23.3 °F 18.0 °F 50% 29.24 in 10.0 mi NNE 23.0 mph 28.8 mph N/A   Overcast
12:53 PM 34.0 °F 21.0 °F 21.0 °F 59% 29.21 in 10.0 mi NNE 26.5 mph 36.8 mph N/A   Overcast
1:53 PM 36.0 °F 25.6 °F 21.9 °F 57% 29.21 in 10.0 mi NNE 18.4 mph 27.6 mph N/A   Overcast
2:53 PM 36.0 °F 27.1 °F 21.9 °F 57% 29.22 in 10.0 mi NNE 13.8 mph 17.3 mph N/A   Overcast
3:53 PM 36.0 °F 29.6 °F 21.0 °F 55% 29.21 in 10.0 mi NE 8.1 mph - N/A   Overcast
4:53 PM 35.1 °F 29.3 °F 27.0 °F 72% 29.24 in 10.0 mi NNE 6.9 mph - N/A   Scattered Clouds
5:53 PM 33.1 °F - 21.9 °F 64% 29.26 in 10.0 mi Calm Calm - N/A   Mostly Cloudy
6:08 PM 33.8 °F - 24.8 °F 70% 29.27 in 10.0 mi Calm Calm - N/A   Overcast
6:53 PM 30.9 °F - 26.1 °F 82% 29.30 in 10.0 mi Calm Calm - N/A   Overcast
7:53 PM 30.9 °F - 25.0 °F 79% 29.34 in 8.0 mi Calm Calm - 0.00 in   Overcast
8:44 PM 30.2 °F - 26.6 °F 86% 29.35 in 10.0 mi Calm Calm - N/A   Overcast
8:51 PM 30.2 °F 26.7 °F 26.6 °F 86% 29.36 in 10.0 mi SSE 3.5 mph - N/A   Overcast
8:53 PM 30.0 °F 26.5 °F 25.0 °F 82% 29.38 in 10.0 mi South 3.5 mph - N/A   Overcast
9:53 PM 30.9 °F 26.2 °F 25.0 °F 79% 29.43 in 3.0 mi WSW 4.6 mph - 0.00 in Snow Light Snow
9:58 PM 30.2 °F 24.3 °F 26.6 °F 86% 29.42 in 1.8 mi WSW 5.8 mph - 0.00 in Snow Light Snow
10:11 PM 30.2 °F 25.4 °F 26.6 °F 86% 29.43 in 1.0 mi Variable 4.6 mph - 0.01 in Snow Light Snow
10:19 PM 30.2 °F - 28.4 °F 93% 29.44 in 0.8 mi Calm Calm - 0.02 in Snow Light Snow
10:32 PM 30.2 °F - 28.4 °F 93% 29.45 in 0.8 mi Calm Calm - 0.03 in Snow Light Snow
10:53 PM 28.9 °F 23.9 °F 28.0 °F 96% 29.47 in 0.5 mi ENE 4.6 mph - 0.05 in Fog , Snow Snow
11:53 PM 30.0 °F - 28.9 °F 96% 29.50 in 0.5 mi Calm Calm - 0.06 in Fog , Snow Snow